Time,TemperatureF,DewpointF,PressureIn,WindDirection,WindDirectionDegrees,WindSpeedMPH,WindSpeedGustMPH,Humidity,HourlyPrecipIn,Conditions,Clouds,dailyrainin,SoftwareType,DateUTC
2013-02-06 00:05:00,44.8,42.0,29.91,South,191,3.0,6.0,90,0.00,,,0.00,Wunderground v.1.15,2013-02-06 08:05:00,
2013-02-06 00:10:00,44.8,42.0,29.91,South,185,3.0,3.0,90,0.00,,,0.00,Wunderground v.1.15,2013-02-06 08:10:00,
2013-02-06 00:15:00,44.7,41.9,29.91,SSE,156,3.0,4.0,90,0.00,,,0.00,Wunderground v.1.15,2013-02-06 08:15:00,
2013-02-06 00:25:00,44.6,41.8,29.91,SSW,198,4.0,6.0,90,0.00,,,0.00,Wunderground v.1.15,2013-02-06 08:25:00,
2013-02-06 00:35:00,44.5,41.5,29.92,NW,320,3.0,14.0,89,0.00,,,0.00,Wunderground v.1.15,2013-02-06 08:35:00,
2013-02-06 00:45:00,44.5,41.5,29.92,South,180,4.0,14.0,89,0.00,,,0.00,Wunderground v.1.15,2013-02-06 08:45:00,
2013-02-06 00:55:00,44.6,41.6,29.93,South,185,3.0,14.0,89,0.00,,,0.00,Wunderground v.1.15,2013-02-06 08:55:00,
2013-02-06 01:05:00,44.6,41.6,29.93,South,170,3.0,7.0,89,0.00,,,0.00,Wunderground v.1.15,2013-02-06 09:05:00,
2013-02-06 01:15:00,44.6,41.6,29.93,South,185,3.0,8.0,89,0.00,,,0.00,Wunderground v.1.15,2013-02-06 09:15:00,
2013-02-06 01:25:00,44.5,41.5,29.93,SE,124,3.0,3.0,89,0.00,,,0.00,Wunderground v.1.15,2013-02-06 09:25:00,
2013-02-06 01:35:00,44.4,41.7,29.93,ENE,60,2.0,10.0,90,0.00,,,0.00,Wunderground v.1.15,2013-02-06 09:35:00,
2013-02-06 01:45:00,44.3,41.3,29.93,SW,218,4.0,10.0,89,0.00,,,0.00,Wunderground v.1.15,2013-02-06 09:45:00,
2013-02-06 01:55:00,44.3,41.3,29.93,SSW,207,4.0,10.0,89,0.00,,,0.00,Wunderground v.1.15,2013-02-06 09:55:00,
2013-02-06 02:00:00,44.2,41.2,29.93,South,175,4.0,7.0,89,0.00,,,0.00,Wunderground v.1.15,2013-02-06 10:00:00,
2013-02-06 02:10:00,44.1,41.4,29.93,SSW,201,3.0,3.0,90,0.00,,,0.00,Wunderground v.1.15,2013-02-06 10:10:00,
2013-02-06 02:15:00,44.1,41.4,29.93,South,180,3.0,3.0,90,0.00,,,0.00,Wunderground v.1.15,2013-02-06 10:15:00,
2013-02-06 02:25:00,44.1,41.6,29.94,NW,316,3.0,3.0,91,0.00,,,0.00,Wunderground v.1.15,2013-02-06 10:25:00,
2013-02-06 02:35:00,44.0,41.5,29.94,WNW,293,3.0,10.0,91,0.00,,,0.00,Wunderground v.1.15,2013-02-06 10:35:00,
2013-02-06 02:45:00,44.1,41.6,29.95,ESE,120,2.0,10.0,91,0.00,,,0.00,Wunderground v.1.15,2013-02-06 10:45:00,
2013-02-06 02:55:00,44.2,41.7,29.95,SSW,207,3.0,10.0,91,0.00,,,0.00,Wunderground v.1.15,2013-02-06 10:55:00,
2013-02-06 03:00:00,44.2,41.7,29.95,ESE,120,3.0,3.0,91,0.00,,,0.00,Wunderground v.1.15,2013-02-06 11:00:00,
2013-02-06 03:10:00,44.1,41.6,29.95,South,169,3.0,3.0,91,0.00,,,0.00,Wunderground v.1.15,2013-02-06 11:10:00,
2013-02-06 03:15:00,44.1,41.9,29.95,South,175,3.0,3.0,92,0.00,,,0.00,Wunderground v.1.15,2013-02-06 11:15:00,
2013-02-06 03:25:00,44.1,41.9,29.96,South,185,1.0,2.0,92,0.00,,,0.00,Wunderground v.1.15,2013-02-06 11:25:00,
2013-02-06 03:35:00,44.0,41.8,29.96,SSW,199,2.0,11.0,92,0.00,,,0.00,Wunderground v.1.15,2013-02-06 11:35:00,
2013-02-06 03:45:00,43.9,42.0,29.96,South,175,2.0,11.0,93,0.00,,,0.01,Wunderground v.1.15,2013-02-06 11:45:00,
2013-02-06 03:55:00,43.8,41.6,29.96,SSW,196,2.0,3.0,92,0.00,,,0.01,Wunderground v.1.15,2013-02-06 11:55:00,
2013-02-06 04:00:00,43.8,41.6,29.96,SE,139,2.0,4.0,92,0.00,,,0.01,Wunderground v.1.15,2013-02-06 12:00:00,
2013-02-06 04:05:00,43.8,41.6,29.97,SSE,159,2.0,4.0,92,0.00,,,0.01,Wunderground v.1.15,2013-02-06 12:05:00,
2013-02-06 04:15:00,43.8,41.6,29.97,SSW,193,1.0,3.0,92,0.00,,,0.01,Wunderground v.1.15,2013-02-06 12:15:00,
2013-02-06 04:25:00,43.8,41.6,29.97,SE,137,2.0,4.0,92,0.00,,,0.01,Wunderground v.1.15,2013-02-06 12:25:00,
2013-02-06 04:35:00,43.8,41.6,29.98,South,175,1.0,8.0,92,0.00,,,0.01,Wunderground v.1.15,2013-02-06 12:35:00,
2013-02-06 04:45:00,43.8,41.6,29.98,SE,134,1.0,8.0,92,0.00,,,0.01,Wunderground v.1.15,2013-02-06 12:45:00,
2013-02-06 04:55:00,43.8,41.6,29.98,WSW,243,1.0,8.0,92,0.00,,,0.01,Wunderground v.1.15,2013-02-06 12:55:00,
2013-02-06 05:05:00,43.8,41.6,29.98,SW,224,2.0,2.0,92,0.00,,,0.01,Wunderground v.1.15,2013-02-06 13:05:00,
2013-02-06 05:15:00,43.9,41.4,29.98,SSE,166,3.0,3.0,91,0.00,,,0.01,Wunderground v.1.15,2013-02-06 13:15:00,
2013-02-06 05:25:00,43.9,41.7,29.98,South,190,3.0,3.0,92,0.00,,,0.01,Wunderground v.1.15,2013-02-06 13:25:00,
2013-02-06 05:35:00,44.0,41.5,29.98,SSE,149,3.0,9.0,91,0.00,,,0.01,Wunderground v.1.15,2013-02-06 13:35:00,
2013-02-06 05:40:00,44.0,41.5,29.98,SSE,152,2.0,7.0,91,0.00,,,0.01,Wunderground v.1.15,2013-02-06 13:40:00,
2013-02-06 05:45:00,43.9,41.7,29.98,SSW,205,2.0,7.0,92,0.00,,,0.01,Wunderground v.1.15,2013-02-06 13:45:00,
2013-02-06 05:55:00,43.8,41.6,29.99,SW,216,2.0,7.0,92,0.00,,,0.01,Wunderground v.1.15,2013-02-06 13:55:00,
2013-02-06 06:05:00,43.9,41.7,29.99,NNE,27,2.0,3.0,92,0.00,,,0.01,Wunderground v.1.15,2013-02-06 14:05:00,
2013-02-06 06:15:00,43.9,41.7,29.99,East,94,2.0,4.0,92,0.00,,,0.01,Wunderground v.1.15,2013-02-06 14:15:00,
2013-02-06 06:25:00,43.7,41.5,29.99,SSW,199,2.0,2.0,92,0.00,,,0.01,Wunderground v.1.15,2013-02-06 14:25:00,
2013-02-06 06:35:00,43.7,41.5,30.00,WSW,245,2.0,13.0,92,0.00,,,0.01,Wunderground v.1.15,2013-02-06 14:35:00,
2013-02-06 06:45:00,43.8,41.6,30.00,SSE,148,2.0,13.0,92,0.00,,,0.01,Wunderground v.1.15,2013-02-06 14:45:00,
2013-02-06 06:55:00,43.9,41.7,30.00,SSW,196,2.0,3.0,92,0.00,,,0.01,Wunderground v.1.15,2013-02-06 14:55:00,
2013-02-06 07:05:00,43.8,41.6,30.00,South,175,2.0,2.0,92,0.00,,,0.01,Wunderground v.1.15,2013-02-06 15:05:00,
2013-02-06 07:15:00,43.7,41.5,30.01,SSW,195,2.0,2.0,92,0.00,,,0.01,Wunderground v.1.15,2013-02-06 15:15:00,
2013-02-06 07:25:00,43.6,41.4,30.01,WSW,240,3.0,3.0,92,0.00,,,0.01,Wunderground v.1.15,2013-02-06 15:25:00,
2013-02-06 07:35:00,43.6,41.4,30.01,SSE,163,2.0,11.0,92,0.00,,,0.01,Wunderground v.1.15,2013-02-06 15:35:00,
2013-02-06 07:45:00,43.4,41.2,30.01,West,281,2.0,11.0,92,0.00,,,0.01,Wunderground v.1.15,2013-02-06 15:45:00,
2013-02-06 07:55:00,43.5,41.6,30.01,SSW,210,2.0,4.0,93,0.00,,,0.01,Wunderground v.1.15,2013-02-06 15:55:00,
2013-02-06 08:00:00,43.5,41.6,30.01,ESE,120,2.0,2.0,93,0.00,,,0.01,Wunderground v.1.15,2013-02-06 16:00:00,
2013-02-06 08:10:00,43.6,41.7,30.02,SSE,150,1.0,1.0,93,0.00,,,0.01,Wunderground v.1.15,2013-02-06 16:10:00,
2013-02-06 08:15:00,43.6,41.7,30.01,SSE,164,1.0,4.0,93,0.00,,,0.01,Wunderground v.1.15,2013-02-06 16:15:00,
2013-02-06 08:25:00,43.5,41.3,30.02,SSW,193,2.0,3.0,92,0.00,,,0.01,Wunderground v.1.15,2013-02-06 16:25:00,
2013-02-06 08:35:00,43.7,41.5,30.02,South,185,2.0,9.0,92,0.00,,,0.01,Wunderground v.1.15,2013-02-06 16:35:00,
2013-02-06 08:45:00,43.9,41.4,30.02,SSE,165,2.0,9.0,91,0.00,,,0.01,Wunderground v.1.15,2013-02-06 16:45:00,
2013-02-06 08:55:00,44.1,41.6,30.02,South,185,2.0,9.0,91,0.00,,,0.01,Wunderground v.1.15,2013-02-06 16:55:00,
2013-02-06 09:05:00,44.2,41.5,30.02,SSE,163,3.0,3.0,90,0.00,,,0.01,Wunderground v.1.15,2013-02-06 17:05:00,
2013-02-06 09:15:00,44.5,41.7,30.01,South,180,2.0,6.0,90,0.00,,,0.01,Wunderground v.1.15,2013-02-06 17:15:00,
2013-02-06 09:25:00,44.7,41.7,30.01,SSW,195,1.0,1.0,89,0.00,,,0.01,Wunderground v.1.15,2013-02-06 17:25:00,
2013-02-06 09:35:00,45.0,41.7,30.01,SW,232,1.0,2.0,88,0.00,,,0.01,Wunderground v.1.15,2013-02-06 17:35:00,
2013-02-06 09:45:00,45.3,41.7,30.01,South,175,1.0,2.0,87,0.00,,,0.01,Wunderground v.1.15,2013-02-06 17:45:00,
2013-02-06 09:55:00,45.7,41.8,30.01,SE,127,1.0,6.0,86,0.00,,,0.01,Wunderground v.1.15,2013-02-06 17:55:00,
2013-02-06 10:05:00,46.1,41.8,30.01,South,180,2.0,5.0,85,0.00,,,0.01,Wunderground v.1.15,2013-02-06 18:05:00,
2013-02-06 10:15:00,46.3,42.0,30.01,SSW,196,1.0,2.0,85,0.00,,,0.01,Wunderground v.1.15,2013-02-06 18:15:00,
2013-02-06 10:25:00,46.7,42.1,30.01,SW,214,1.0,2.0,84,0.00,,,0.01,Wunderground v.1.15,2013-02-06 18:25:00,
2013-02-06 10:35:00,46.9,41.7,30.01,South,185,1.0,5.0,82,0.00,,,0.01,Wunderground v.1.15,2013-02-06 18:35:00,
2013-02-06 10:45:00,46.9,41.7,30.00,SSW,194,2.0,8.0,82,0.00,,,0.01,Wunderground v.1.15,2013-02-06 18:45:00,
2013-02-06 10:55:00,47.2,42.3,30.00,South,185,2.0,8.0,83,0.00,,,0.01,Wunderground v.1.15,2013-02-06 18:55:00,
2013-02-06 11:05:00,47.4,42.2,30.00,SSE,150,1.0,3.0,82,0.00,,,0.01,Wunderground v.1.15,2013-02-06 19:05:00,
2013-02-06 11:15:00,47.7,41.8,30.00,SW,218,1.0,3.0,80,0.00,,,0.01,Wunderground v.1.15,2013-02-06 19:15:00,
2013-02-06 11:25:00,47.9,41.4,30.00,SSW,202,2.0,2.0,78,0.00,,,0.01,Wunderground v.1.15,2013-02-06 19:25:00,
2013-02-06 11:35:00,48.0,41.1,29.99,South,171,2.0,6.0,77,0.00,,,0.01,Wunderground v.1.15,2013-02-06 19:35:00,
2013-02-06 11:45:00,48.3,41.4,29.99,South,170,2.0,6.0,77,0.00,,,0.01,Wunderground v.1.15,2013-02-06 19:45:00,
2013-02-06 11:50:00,48.5,41.3,29.99,NE,50,1.0,1.0,76,0.00,,,0.01,Wunderground v.1.15,2013-02-06 19:50:00,
2013-02-06 11:55:00,48.7,41.5,29.99,SSW,193,1.0,6.0,76,0.00,,,0.01,Wunderground v.1.15,2013-02-06 19:55:00,
2013-02-06 12:05:00,49.0,41.1,29.99,SSW,198,2.0,2.0,74,0.00,,,0.01,Wunderground v.1.15,2013-02-06 20:05:00,
2013-02-06 12:15:00,49.2,41.6,29.98,South,175,1.0,2.0,75,0.00,,,0.01,Wunderground v.1.15,2013-02-06 20:15:00,
2013-02-06 12:25:00,49.7,41.4,29.98,South,191,1.0,1.0,73,0.00,,,0.01,Wunderground v.1.15,2013-02-06 20:25:00,
2013-02-06 12:35:00,50.0,41.3,29.97,SSE,149,1.0,7.0,72,0.00,,,0.01,Wunderground v.1.15,2013-02-06 20:35:00,
2013-02-06 12:45:00,50.5,41.8,29.97,SSW,196,1.0,2.0,72,0.00,,,0.01,Wunderground v.1.15,2013-02-06 20:45:00,
2013-02-06 12:55:00,50.4,41.0,29.97,South,180,3.0,7.0,70,0.00,,,0.02,Wunderground v.1.15,2013-02-06 20:55:00,
2013-02-06 13:05:00,50.1,41.1,29.97,South,185,2.0,2.0,71,0.00,,,0.02,Wunderground v.1.15,2013-02-06 21:05:00,
2013-02-06 13:15:00,50.0,42.0,29.96,WSW,251,2.0,2.0,74,0.00,,,0.02,Wunderground v.1.15,2013-02-06 21:15:00,
2013-02-06 13:25:00,50.1,41.8,29.96,ESE,104,2.0,2.0,73,0.00,,,0.02,Wunderground v.1.15,2013-02-06 21:25:00,
2013-02-06 13:30:00,50.3,41.6,29.95,SSW,210,2.0,5.0,72,0.00,,,0.02,Wunderground v.1.15,2013-02-06 21:30:00,
2013-02-06 13:35:00,50.6,42.3,29.95,SSE,156,2.0,6.0,73,0.00,,,0.02,Wunderground v.1.15,2013-02-06 21:35:00,
2013-02-06 13:45:00,50.9,42.2,29.95,SSW,197,2.0,3.0,72,0.00,,,0.02,Wunderground v.1.15,2013-02-06 21:45:00,
2013-02-06 13:55:00,50.9,41.8,29.94,SE,142,1.0,6.0,71,0.00,,,0.02,Wunderground v.1.15,2013-02-06 21:55:00,
2013-02-06 14:05:00,50.9,42.2,29.94,SSW,192,1.0,1.0,72,0.00,,,0.02,Wunderground v.1.15,2013-02-06 22:05:00,
2013-02-06 14:15:00,50.0,43.4,29.94,NNE,25,1.0,1.0,78,0.00,,,0.02,Wunderground v.1.15,2013-02-06 22:15:00,
2013-02-06 14:25:00,48.8,43.5,29.94,NNE,20,1.0,1.0,82,0.00,,,0.02,Wunderground v.1.15,2013-02-06 22:25:00,
2013-02-06 14:30:00,48.4,43.8,29.94,South,185,2.0,2.0,84,0.00,,,0.02,Wunderground v.1.15,2013-02-06 22:30:00,
2013-02-06 14:35:00,48.2,43.9,29.93,SSW,207,2.0,8.0,85,0.00,,,0.02,Wunderground v.1.15,2013-02-06 22:35:00,
2013-02-06 14:45:00,48.3,44.0,29.93,South,175,0.0,8.0,85,0.00,,,0.02,Wunderground v.1.15,2013-02-06 22:45:00,
2013-02-06 14:55:00,48.4,44.4,29.93,SSE,160,1.0,8.0,86,0.00,,,0.02,Wunderground v.1.15,2013-02-06 22:55:00,
2013-02-06 15:05:00,48.4,44.1,29.93,SSE,164,1.0,1.0,85,0.00,,,0.02,Wunderground v.1.15,2013-02-06 23:05:00,
2013-02-06 15:15:00,48.4,44.1,29.93,South,180,0.0,0.0,85,0.00,,,0.02,Wunderground v.1.15,2013-02-06 23:15:00,
2013-02-06 15:25:00,48.2,43.6,29.93,SSW,196,1.0,2.0,84,0.00,,,0.02,Wunderground v.1.15,2013-02-06 23:25:00,
2013-02-06 15:35:00,47.6,43.6,29.93,South,175,2.0,7.0,86,0.10,,,0.04,Wunderground v.1.15,2013-02-06 23:35:00,
2013-02-06 15:45:00,46.9,43.5,29.92,SW,216,1.0,7.0,88,0.05,,,0.04,Wunderground v.1.15,2013-02-06 23:45:00,
2013-02-06 15:55:00,46.7,43.9,29.92,South,180,0.0,7.0,90,0.00,,,0.04,Wunderground v.1.15,2013-02-06 23:55:00,
2013-02-06 16:05:00,46.6,44.1,29.92,SW,224,0.0,0.0,91,0.00,,,0.04,Wunderground v.1.15,2013-02-07 00:05:00,
2013-02-06 16:15:00,46.5,43.7,29.92,SSW,199,0.0,0.0,90,0.00,,,0.04,Wunderground v.1.15,2013-02-07 00:15:00,
2013-02-06 16:20:00,46.5,43.7,29.91,SE,144,0.0,2.0,90,0.00,,,0.04,Wunderground v.1.15,2013-02-07 00:20:00,
2013-02-06 16:25:00,46.4,43.6,29.91,ESE,116,1.0,2.0,90,0.00,,,0.05,Wunderground v.1.15,2013-02-07 00:25:00,
2013-02-06 16:35:00,46.1,43.6,29.91,SSW,197,1.0,7.0,91,0.00,,,0.05,Wunderground v.1.15,2013-02-07 00:35:00,
2013-02-06 16:45:00,45.9,43.4,29.92,South,175,0.0,7.0,91,0.00,,,0.06,Wunderground v.1.15,2013-02-07 00:45:00,
2013-02-06 16:55:00,45.7,43.5,29.91,SSE,164,0.0,7.0,92,0.00,,,0.06,Wunderground v.1.15,2013-02-07 00:55:00,
2013-02-06 17:00:00,45.6,43.4,29.91,SSE,150,0.0,0.0,92,0.00,,,0.06,Wunderground v.1.15,2013-02-07 01:00:00,
2013-02-06 17:05:00,45.6,43.7,29.91,SSE,166,0.0,0.0,93,0.00,,,0.07,Wunderground v.1.15,2013-02-07 01:05:00,
2013-02-06 17:15:00,45.5,43.6,29.90,ESE,120,0.0,1.0,93,0.09,,,0.08,Wunderground v.1.15,2013-02-07 01:15:00,
2013-02-06 17:25:00,45.4,43.8,29.90,SSW,212,0.0,1.0,94,0.04,,,0.08,Wunderground v.1.15,2013-02-07 01:25:00,
2013-02-06 17:35:00,45.2,43.6,29.89,WNW,285,1.0,6.0,94,0.00,,,0.08,Wunderground v.1.15,2013-02-07 01:35:00,
2013-02-06 17:45:00,45.1,43.2,29.88,SSE,150,1.0,6.0,93,0.00,,,0.08,Wunderground v.1.15,2013-02-07 01:45:00,
2013-02-06 17:55:00,45.0,43.1,29.88,South,175,0.0,6.0,93,0.00,,,0.08,Wunderground v.1.15,2013-02-07 01:55:00,
2013-02-06 18:05:00,45.0,43.1,29.88,SSE,162,0.0,3.0,93,0.00,,,0.08,Wunderground v.1.15,2013-02-07 02:05:00,
2013-02-06 18:15:00,45.1,42.6,29.88,SSE,149,2.0,2.0,91,0.00,,,0.09,Wunderground v.1.15,2013-02-07 02:15:00,
2013-02-06 18:25:00,45.1,42.9,29.88,SSE,155,1.0,2.0,92,0.00,,,0.09,Wunderground v.1.15,2013-02-07 02:25:00,
2013-02-06 18:35:00,45.0,42.8,29.87,South,175,1.0,4.0,92,0.00,,,0.10,Wunderground v.1.15,2013-02-07 02:35:00,
2013-02-06 18:45:00,44.9,43.0,29.86,ESE,120,1.0,4.0,93,0.00,,,0.10,Wunderground v.1.15,2013-02-07 02:45:00,
2013-02-06 18:55:00,44.8,42.9,29.86,East,101,0.0,4.0,93,0.00,,,0.11,Wunderground v.1.15,2013-02-07 02:55:00,
2013-02-06 19:05:00,44.7,42.8,29.85,NE,49,0.0,0.0,93,0.00,,,0.11,Wunderground v.1.15,2013-02-07 03:05:00,
2013-02-06 19:15:00,44.6,42.7,29.84,SE,136,0.0,0.0,93,0.00,,,0.11,Wunderground v.1.15,2013-02-07 03:15:00,
2013-02-06 19:25:00,44.5,42.6,29.83,East,101,0.0,2.0,93,0.00,,,0.11,Wunderground v.1.15,2013-02-07 03:25:00,
2013-02-06 19:35:00,44.4,42.5,29.83,SSW,198,0.0,6.0,93,0.00,,,0.11,Wunderground v.1.15,2013-02-07 03:35:00,
2013-02-06 19:45:00,44.3,42.4,29.83,ENE,77,0.0,6.0,93,0.00,,,0.11,Wunderground v.1.15,2013-02-07 03:45:00,
2013-02-06 19:55:00,44.2,42.3,29.82,South,175,0.0,6.0,93,0.00,,,0.11,Wunderground v.1.15,2013-02-07 03:55:00,
2013-02-06 20:05:00,44.2,42.0,29.82,South,180,0.0,1.0,92,0.00,,,0.11,Wunderground v.1.15,2013-02-07 04:05:00,
2013-02-06 20:15:00,44.3,42.1,29.82,ESE,106,0.0,0.0,92,0.00,,,0.11,Wunderground v.1.15,2013-02-07 04:15:00,
2013-02-06 20:25:00,44.3,42.4,29.82,SE,125,0.0,0.0,93,0.00,,,0.11,Wunderground v.1.15,2013-02-07 04:25:00,
2013-02-06 20:35:00,44.2,42.0,29.81,SSE,166,0.0,4.0,92,0.00,,,0.11,Wunderground v.1.15,2013-02-07 04:35:00,
2013-02-06 20:45:00,44.2,42.3,29.81,ESE,112,0.0,4.0,93,0.00,,,0.11,Wunderground v.1.15,2013-02-07 04:45:00,
2013-02-06 20:55:00,44.1,41.9,29.80,SE,126,0.0,4.0,92,0.00,,,0.11,Wunderground v.1.15,2013-02-07 04:55:00,
2013-02-06 21:00:00,44.2,42.0,29.80,SSW,201,0.0,0.0,92,0.00,,,0.11,Wunderground v.1.15,2013-02-07 05:00:00,
2013-02-06 21:05:00,44.2,41.7,29.80,SSE,153,1.0,1.0,91,0.00,,,0.11,Wunderground v.1.15,2013-02-07 05:05:00,
2013-02-06 21:15:00,44.4,41.7,29.79,SSE,168,1.0,1.0,90,0.00,,,0.11,Wunderground v.1.15,2013-02-07 05:15:00,
2013-02-06 21:20:00,44.5,41.7,29.79,East,79,1.0,1.0,90,0.00,,,0.11,Wunderground v.1.15,2013-02-07 05:20:00,
2013-02-06 21:25:00,44.6,41.6,29.79,ENE,77,1.0,2.0,89,0.00,,,0.11,Wunderground v.1.15,2013-02-07 05:25:00,
2013-02-06 21:35:00,44.7,41.4,29.78,South,185,1.0,3.0,88,0.00,,,0.11,Wunderground v.1.15,2013-02-07 05:35:00,
2013-02-06 21:45:00,44.7,41.4,29.78,SE,141,1.0,3.0,88,0.00,,,0.11,Wunderground v.1.15,2013-02-07 05:45:00,
2013-02-06 21:55:00,44.6,41.3,29.78,SSW,209,0.0,3.0,88,0.00,,,0.11,Wunderground v.1.15,2013-02-07 05:55:00,
2013-02-06 22:05:00,44.6,41.3,29.77,SSW,194,0.0,1.0,88,0.00,,,0.11,Wunderground v.1.15,2013-02-07 06:05:00,
2013-02-06 22:15:00,44.7,41.4,29.77,South,175,1.0,1.0,88,0.00,,,0.11,Wunderground v.1.15,2013-02-07 06:15:00,
2013-02-06 22:25:00,44.7,41.4,29.77,South,190,1.0,1.0,88,0.00,,,0.11,Wunderground v.1.15,2013-02-07 06:25:00,
2013-02-06 22:35:00,44.7,41.4,29.78,SSE,158,1.0,6.0,88,0.00,,,0.11,Wunderground v.1.15,2013-02-07 06:35:00,
2013-02-06 22:45:00,44.8,42.0,29.77,East,85,0.0,6.0,90,0.00,,,0.11,Wunderground v.1.15,2013-02-07 06:45:00,
2013-02-06 22:55:00,44.6,41.6,29.77,SSW,194,0.0,6.0,89,0.00,,,0.11,Wunderground v.1.15,2013-02-07 06:55:00,
2013-02-06 23:05:00,44.6,41.6,29.76,SE,139,0.0,1.0,89,0.00,,,0.11,Wunderground v.1.15,2013-02-07 07:05:00,
2013-02-06 23:15:00,44.6,41.8,29.77,SSE,158,0.0,0.0,90,0.00,,,0.11,Wunderground v.1.15,2013-02-07 07:15:00,
2013-02-06 23:25:00,44.6,41.6,29.76,SSW,195,0.0,0.0,89,0.00,,,0.11,Wunderground v.1.15,2013-02-07 07:25:00,
2013-02-06 23:35:00,44.6,41.6,29.77,ESE,112,0.0,4.0,89,0.00,,,0.12,Wunderground v.1.15,2013-02-07 07:35:00,
2013-02-06 23:45:00,44.8,41.2,29.77,SSW,193,1.0,4.0,87,0.00,,,0.12,Wunderground v.1.15,2013-02-07 07:45:00,
2013-02-06 23:50:00,44.9,41.6,29.77,SSW,199,1.0,1.0,88,0.00,,,0.12,Wunderground v.1.15,2013-02-07 07:50:00,
2013-02-06 23:55:00,44.9,41.6,29.77,SSE,149,1.0,4.0,88,0.00,,,0.12,Wunderground v.1.15,2013-02-07 07:55:00,